• In Czech Republic
  • List of Countries
  • For 7 days
  • Water Temperature
  • Satellite Maps
  • Weather Map
  • Weather Widgets
  • user-avatar
    Login

    Hourly Weather Ixtenco

    Today, 18 January, Thursday

    Time Temperature Precipitation Wind Pressure Humidity
    00:00 +4°C° 0 mm 3 mps 564 mmHg 79%
    01:00 +4°C° 0 mm 3 mps 564 mmHg 80%
    02:00 +4°C° 0 mm 3 mps 563 mmHg 81%
    03:00 +3°C° 0 mm 3 mps 563 mmHg 82%
    04:00 +4°C° 0 mm 2 mps 563 mmHg 84%
    05:00 +3°C° 0 mm 2 mps 562 mmHg 84%
    06:00 +4°C° 0 mm 2 mps 563 mmHg 79%
    07:00 +5°C° 0 mm 2 mps 564 mmHg 73%
    08:00 +7°C° 0 mm 2 mps 564 mmHg 67%
    09:00 +9°C° 0 mm 2 mps 565 mmHg 58%
    10:00 +12°C° 0 mm 2 mps 566 mmHg 49%
    11:00 +14°C° 0 mm 2 mps 566 mmHg 40%
    12:00 +14°C° 0 mm 2 mps 566 mmHg 38%
    13:00 +14°C° 0 mm 3 mps 566 mmHg 36%
    14:00 +16°C° 0 mm 3 mps 566 mmHg 35%
    15:00 +14°C° 0 mm 3 mps 565 mmHg 41%
    16:00 +12°C° 0 mm 3 mps 564 mmHg 47%
    17:00 +11°C° 0 mm 3 mps 564 mmHg 53%
    18:00 +10°C° 0 mm 3 mps 564 mmHg 60%
    19:00 +9°C° 0 mm 2 mps 563 mmHg 66%
    20:00 +7°C° 0 mm 2 mps 563 mmHg 73%
    21:00 +7°C° 0 mm 2 mps 563 mmHg 74%
    22:00 +8°C° 0 mm 1 mps 563 mmHg 75%
    23:00 +7°C° 0 mm 1 mps 562 mmHg 76%

    Tomorrow, 19 January, Friday

    Time Temperature Precipitation Wind Pressure Humidity
    00:00 +7°C° 0 mm 1 mps 562 mmHg 75%
    01:00 +7°C° 0 mm 1 mps 562 mmHg 73%
    02:00 +6°C° 0 mm 1 mps 561 mmHg 72%
    03:00 +6°C° 0 mm 1 mps 561 mmHg 70%
    04:00 +6°C° 0 mm 1 mps 561 mmHg 68%
    05:00 +6°C° 0 mm 1 mps 561 mmHg 66%
    06:00 +7°C° 0 mm 1 mps 562 mmHg 61%
    07:00 +9°C° 0 mm 1 mps 563 mmHg 55%
    08:00 +10°C° 0 mm 1 mps 564 mmHg 50%
    09:00 +12°C° 0 mm 2 mps 564 mmHg 45%
    10:00 +14°C° 0 mm 2 mps 565 mmHg 40%
    11:00 +16°C° 0 mm 3 mps 566 mmHg 36%
    12:00 +16°C° 0 mm 3 mps 565 mmHg 36%
    13:00 +15°C° 0 mm 4 mps 564 mmHg 35%
    14:00 +17°C° 0 mm 4 mps 564 mmHg 35%
    15:00 +15°C° 0 mm 4 mps 563 mmHg 40%
    16:00 +14°C° 0 mm 3 mps 563 mmHg 44%
    17:00 +13°C° 0 mm 3 mps 562 mmHg 48%
    18:00 +12°C° 0 mm 2 mps 562 mmHg 53%
    19:00 +10°C° 0 mm 2 mps 562 mmHg 57%
    20:00 +10°C° 0 mm 1 mps 562 mmHg 61%
    21:00 +10°C° 0 mm 1 mps 562 mmHg 62%
    22:00 +10°C° 0 mm 1 mps 562 mmHg 63%
    23:00 +9°C° 0 mm 1 mps 562 mmHg 64%

    Day after tomorrow, 20 January, Saturday

    Time Temperature Precipitation Wind Pressure Humidity
    00:00 +9°C° 0 mm 1 mps 561 mmHg 66%
    01:00 +8°C° 0 mm 1 mps 561 mmHg 67%
    02:00 +8°C° 0 mm 1 mps 560 mmHg 68%
    03:00 +8°C° 0 mm 1 mps 560 mmHg 69%
    04:00 +7°C° 0 mm 1 mps 560 mmHg 71%
    05:00 +7°C° 0 mm 1 mps 560 mmHg 72%
    06:00 +8°C° 0 mm 1 mps 561 mmHg 66%
    07:00 +10°C° 0 mm 1 mps 562 mmHg 60%
    08:00 +12°C° 0 mm 1 mps 563 mmHg 54%
    09:00 +13°C° 0 mm 1 mps 564 mmHg 48%
    10:00 +14°C° 0 mm 2 mps 564 mmHg 42%
    11:00 +16°C° 0 mm 2 mps 565 mmHg 36%
    12:00 +17°C° 0 mm 3 mps 564 mmHg 34%
    13:00 +17°C° 0 mm 3 mps 564 mmHg 32%
    14:00 +18°C° 0 mm 4 mps 564 mmHg 30%
    15:00 +17°C° 0 mm 3 mps 563 mmHg 35%
    16:00 +16°C° 0 mm 3 mps 563 mmHg 39%
    17:00 +14°C° 0 mm 3 mps 562 mmHg 43%
    18:00 +13°C° 0 mm 2 mps 562 mmHg 47%
    19:00 +12°C° 0 mm 2 mps 562 mmHg 51%
    20:00 +11°C° 0 mm 1 mps 562 mmHg 55%
    21:00 +10°C° 0 mm 1 mps 562 mmHg 56%
    22:00 +10°C° 0 mm 1 mps 561 mmHg 57%
    23:00 +9°C° 0 mm 1 mps 561 mmHg 57%

    21 January, Sunday

    Time Temperature Precipitation Wind Pressure Humidity
    00:00 +9°C° 0 mm 1 mps 561 mmHg 60%
    01:00 +9°C° 0 mm 1 mps 560 mmHg 62%
    02:00 +8°C° 0 mm 1 mps 560 mmHg 65%
    03:00 +8°C° 0 mm 1 mps 559 mmHg 68%
    04:00 +8°C° 0 mm 1 mps 559 mmHg 71%
    05:00 +7°C° 0 mm 1 mps 559 mmHg 74%
    06:00 +9°C° 0 mm 1 mps 560 mmHg 68%
    07:00 +11°C° 0 mm 1 mps 562 mmHg 61%
    08:00 +12°C° 0 mm 1 mps 563 mmHg 55%
    09:00 +14°C° 0 mm 2 mps 563 mmHg 46%
    10:00 +16°C° 0 mm 2 mps 564 mmHg 37%
    11:00 +18°C° 0 mm 3 mps 565 mmHg 28%
    12:00 +19°C° 0 mm 3 mps 564 mmHg 26%
    13:00 +19°C° 0 mm 4 mps 564 mmHg 25%
    14:00 +20°C° 0 mm 4 mps 563 mmHg 24%
    15:00 +19°C° 0 mm 4 mps 563 mmHg 28%
    16:00 +17°C° 0 mm 3 mps 562 mmHg 33%
    17:00 +16°C° 0 mm 3 mps 561 mmHg 37%
    18:00 +14°C° 0 mm 2 mps 561 mmHg 41%
    19:00 +13°C° 0 mm 2 mps 561 mmHg 44%
    20:00 +11°C° 0 mm 1 mps 561 mmHg 47%
    21:00 +11°C° 0 mm 1 mps 561 mmHg 48%
    22:00 +11°C° 0 mm 1 mps 561 mmHg 48%
    23:00 +10°C° 0 mm 1 mps 560 mmHg 48%

    22 January, Monday

    Time Temperature Precipitation Wind Pressure Humidity
    00:00 +10°C° 0 mm 1 mps 560 mmHg 50%
    01:00 +9°C° 0 mm 1 mps 560 mmHg 52%
    02:00 +9°C° 0 mm 1 mps 559 mmHg 54%
    03:00 +9°C° 0 mm 1 mps 559 mmHg 56%
    04:00 +8°C° 0 mm 1 mps 559 mmHg 59%
    05:00 +8°C° 0 mm 1 mps 559 mmHg 61%
    06:00 +10°C° 0 mm 1 mps 561 mmHg 55%
    07:00 +12°C° 0 mm 1 mps 562 mmHg 49%
    08:00 +13°C° 0 mm 1 mps 564 mmHg 43%
    09:00 +15°C° 0 mm 1 mps 564 mmHg 38%
    10:00 +17°C° 0 mm 2 mps 565 mmHg 33%
    11:00 +18°C° 0 mm 2 mps 566 mmHg 29%
    12:00 +19°C° 0 mm 2 mps 565 mmHg 29%
    13:00 +19°C° 0 mm 3 mps 565 mmHg 30%
    14:00 +20°C° 0 mm 3 mps 564 mmHg 31%
    15:00 +18°C° 0 mm 3 mps 564 mmHg 39%
    16:00 +17°C° 0 mm 4 mps 563 mmHg 47%
    17:00 +14°C° 0 mm 4 mps 563 mmHg 54%
    18:00 +13°C° 0 mm 4 mps 563 mmHg 62%
    19:00 +12°C° 0 mm 3 mps 563 mmHg 71%
    20:00 +11°C° 0 mm 3 mps 563 mmHg 79%
    21:00 +10°C° 0 mm 3 mps 563 mmHg 80%
    22:00 +10°C° 0 mm 3 mps 563 mmHg 80%
    23:00 +10°C° 0 mm 3 mps 562 mmHg 81%

    23 January, Tuesday

    Time Temperature Precipitation Wind Pressure Humidity
    00:00 +10°C° 0 mm 3 mps 562 mmHg 81%
    01:00 +9°C° 0 mm 2 mps 562 mmHg 82%
    02:00 +9°C° 0 mm 2 mps 561 mmHg 82%
    03:00 +9°C° 0 mm 2 mps 561 mmHg 83%
    04:00 +8°C° 0 mm 2 mps 561 mmHg 85%
    05:00 +8°C° 0 mm 2 mps 561 mmHg 86%
    06:00 +9°C° 0 mm 2 mps 562 mmHg 79%
    07:00 +10°C° 0 mm 2 mps 563 mmHg 73%
    08:00 +12°C° 0 mm 2 mps 564 mmHg 66%
    09:00 +14°C° 0 mm 2 mps 564 mmHg 59%
    10:00 +16°C° 0 mm 2 mps 565 mmHg 52%
    11:00 +17°C° 0 mm 3 mps 565 mmHg 45%
    12:00 +18°C° 0 mm 3 mps 565 mmHg 43%
    13:00 +19°C° 0 mm 4 mps 564 mmHg 41%
    14:00 +19°C° 0 mm 4 mps 564 mmHg 38%
    15:00 +18°C° 0 mm 4 mps 564 mmHg 43%
    16:00 +17°C° 0 mm 4 mps 563 mmHg 47%
    17:00 +15°C° 0 mm 4 mps 563 mmHg 51%
    18:00 +14°C° 0 mm 3 mps 563 mmHg 58%
    19:00 +14°C° 0 mm 2 mps 562 mmHg 64%
    20:00 +12°C° 0 mm 2 mps 562 mmHg 71%
    21:00 +12°C° 0 mm 2 mps 562 mmHg 72%
    22:00 +10°C° 0 mm 2 mps 562 mmHg 74%
    23:00 +11°C° 0 mm 1 mps 561 mmHg 75%
    Show more